Simultaneous Nadir Overpasses (SNOs) Predictions

Prediction of SNOs between LANDSAT-8 and METOP-B Satellite Orbit:

Table of predicted SNOs for the next 14.0 days since TLE Epoch: 11/13/2021
Index Date (LANDSAT-8) Time (LANDSAT-8) Lat,Lon (LANDSAT-8) SZA (LANDSAT-8 ) Date (METOP-B) Time (METOP-B) Lat,Lon (METOP-B) SZA (METOP-B ) Distance(km) Time Diff (sec)
1 11/13/2021 17:12:43 -81.13, 141.81 78.38 11/13/2021 17:12:15 -81.13, 141.91 78.37 1.96 28
2 11/13/2021 18:02:08 81.16, -50.08 101.71 11/13/2021 18:02:54 81.15, -50.20 101.71 2.00 46
3 11/16/2021 12:46:57 -81.13,-151.73 77.68 11/16/2021 12:46:37 -81.14,-151.56 77.66 3.05 20
4 11/16/2021 13:36:22 81.16, 16.34 102.40 11/16/2021 13:37:16 81.15, 16.32 102.43 0.37 54
5 11/19/2021 08:21:11 -81.13, -85.31 77.03 11/19/2021 08:21:00 -81.13, -85.44 77.04 2.18 11
6 11/19/2021 09:10:36 81.15, 82.73 103.05 11/19/2021 09:11:38 81.16, 82.82 103.09 1.71 62
7 11/22/2021 03:55:23 -81.14, -18.57 76.38 11/22/2021 03:55:20 -81.14, -18.58 76.38 0.37 3
8 11/22/2021 04:44:48 81.17, 149.45 103.69 11/22/2021 04:45:59 81.16, 149.31 103.70 2.61 71
9 11/24/2021 22:40:11 81.11,-120.27 104.10 11/24/2021 22:39:03 81.12,-120.24 104.07 0.64 68



Historial Predications of SNOs between LANDSAT-8 and METOP-B
